Norfolk, NE

8:51 PM CST on December 08, 2019 (GMT -0600)
Stefan Memorial

Weather History for KOFK - October, 2019

Change the Weather History Date:

Thursday, October 31, 2019

  Actual Average Record
Temperature  
Mean Temperature 30 °F 45 °F  
Max Temperature 45 °F 56 °F 82 °F (1933)
Min Temperature 14 °F 33 °F 10 °F (1923)
Degree Days  
Heating Degree Days 35 20  
Month to date heating degree days 594 443  
Since 1 July heating degree days 624 585  
Cooling Degree Days 0 0  
Month to date cooling degree days 0 9  
Year to date cooling degree days 949 915  
Moisture  
Dew Point 10 °F    
Average Humidity 47    
Maximum Humidity 74    
Minimum Humidity 19    
Precipitation  
Precipitation 0.00 in 0.05 in 1.20 in (1920)
Month to date precipitation 1.93 2.07  
Year to date precipitation 23.96 25.29  
Snow  
Snow 0.00 in 0.10 in - ()
Month to date snowfall T 0.8  
Since 1 July snowfall T 0.8  
Since 1 September snowfall T 0.8  
Snow Depth 0.00 in    
Sea Level Pressure  
Sea Level Pressure 30.21 in    
Wind  
Wind Speed 9 mph (WSW)    
Max Wind Speed 16 mph    
Max Gust Speed 25 mph    
Visibility 10 miles    
Events      
T = Trace of Precipitation, MM = Missing Value Source: NWS Daily Summary

Daily Weather History Graph

Daily Weather History Graph

Search for Another Location

Airport or City:

Astronomy

Oct. 31, 2019 Rise Set
Actual Time 8:00 AM CDT 6:25 PM CDT
Civil Twilight 7:31 AM CDT 6:54 PM CDT
Nautical Twilight 6:59 AM CDT 7:26 PM CDT
Astronomical Twilight 6:26 AM CDT 7:59 PM CDT
Moon 11:53 AM CDT (10/31) 9:19 PM CDT (10/31)
Length of Visible Light 11h 22m
Length of Day
10h 24m
Waxing Crescent, 16% of the Moon is Illuminated
Oct 31
Waxing Crescent
Nov 4
First Quarter
Nov 12
Full
Nov 19
Last Quarter
Nov 26
New

Hourly Weather History & Observations

Time (CDT) Temp. Windchill Dew Point Humidity Pressure Visibility Wind Dir Wind Speed Gust Speed Precip Events Conditions
12:56 AM 16.0 °F 10.4 °F 9.0 °F 74% 30.31 in 10.0 mi West 3.5 mph - N/A   Clear
1:56 AM 18.0 °F 6.9 °F 10.0 °F 71% 30.30 in 10.0 mi West 9.2 mph - N/A   Clear
2:56 AM 18.0 °F 7.7 °F 10.0 °F 71% 30.28 in 10.0 mi West 8.1 mph - N/A   Clear
3:56 AM 17.1 °F 7.6 °F 9.0 °F 71% 30.28 in 10.0 mi West 6.9 mph - N/A   Clear
4:56 AM 16.0 °F 5.3 °F 9.0 °F 74% 30.27 in 10.0 mi West 8.1 mph - N/A   Clear
5:56 AM 16.0 °F 5.3 °F 8.1 °F 71% 30.26 in 10.0 mi West 8.1 mph - N/A   Clear
6:56 AM 15.1 °F 5.2 °F 8.1 °F 74% 30.27 in 10.0 mi West 6.9 mph - N/A   Clear
7:56 AM 15.1 °F 5.2 °F 8.1 °F 74% 30.27 in 10.0 mi WNW 6.9 mph - N/A   Clear
8:56 AM 18.0 °F 7.7 °F 10.9 °F 74% 30.27 in 10.0 mi West 8.1 mph - N/A   Clear
9:56 AM 23.0 °F 14.7 °F 12.9 °F 65% 30.26 in 10.0 mi West 6.9 mph - N/A   Clear
10:56 AM 30.0 °F 23.2 °F 16.0 °F 56% 30.25 in 10.0 mi WNW 6.9 mph - N/A   Clear
11:56 AM 37.0 °F 29.8 °F 12.9 °F 37% 30.23 in 10.0 mi West 10.4 mph - N/A   Clear
12:56 PM 39.9 °F 33.4 °F 9.0 °F 28% 30.20 in 10.0 mi WSW 10.4 mph - N/A   Clear
1:56 PM 42.1 °F 34.9 °F 6.1 °F 23% 30.17 in 10.0 mi West 13.8 mph 19.6 mph N/A   Clear
2:56 PM 43.0 °F 37.7 °F 7.0 °F 23% 30.14 in 10.0 mi West 9.2 mph - N/A   Clear
3:56 PM 44.1 °F 37.7 °F 6.1 °F 21% 30.13 in 10.0 mi WSW 12.7 mph - N/A   Clear
4:56 PM 45.0 °F 38.2 °F 5.0 °F 19% 30.12 in 10.0 mi SW 15.0 mph 19.6 mph N/A   Clear
5:56 PM 42.1 °F 35.7 °F 6.1 °F 23% 30.12 in 10.0 mi SW 11.5 mph - N/A   Clear
6:56 PM 34.0 °F 26.6 °F 10.0 °F 37% 30.13 in 10.0 mi South 9.2 mph - N/A   Clear
7:56 PM 33.1 °F 24.4 °F 10.9 °F 40% 30.12 in 10.0 mi South 11.5 mph - N/A   Clear
8:56 PM 33.1 °F 23.4 °F 14.0 °F 46% 30.11 in 10.0 mi SSW 13.8 mph - N/A   Clear
10:56 PM 32.0 °F 23.6 °F 19.0 °F 59% 30.09 in 10.0 mi SW 10.4 mph - N/A   Clear
11:56 PM 30.9 °F 25.2 °F 19.9 °F 64% 30.08 in 10.0 mi West 5.8 mph - N/A   Mostly Cloudy